This is the latest recevied weather packets stored in our database for station/object WA4OPQ-1. If no packets are shown the sender has not sent any weather packets the latest 10 day(s).
| Time | Temp. | Humidity | Pressure | Rain* | Wind** | Luminosity | Snow |
|---|---|---|---|---|---|---|---|
| 1787797540 | 20° C | 99% | 1013 hPa | 0 mm | 0 m/s | 0 W/m² | - |
| 1787796953 | 20° C | 99% | 1013.3 hPa | 0 mm | 0 m/s | 0 W/m² | - |
| 1787796403 | 20° C | 99% | 1013 hPa | 0 mm | 0 m/s | 0 W/m² | - |
| 1787795887 | 20° C | 99% | 1012.9 hPa | 0 mm | 0 m/s | 0 W/m² | - |
| 1787795323 | 20° C | 99% | 1012.6 hPa | 0 mm | 0 m/s | 0 W/m² | - |
| 1787794786 | 20° C | 99% | 1012.5 hPa | 0 mm | 0 m/s | 0 W/m² | - |
| 1787794229 | 20° C | 99% | 1012.6 hPa | 0 mm | 0 m/s | 0 W/m² | - |
| 1787793678 | 20° C | 99% | 1012.4 hPa | 0 mm | 0 m/s | 0 W/m² | - |
| 1787793159 | 20.56° C | 99% | 1012.1 hPa | 0 mm | 0 m/s | 0 W/m² | - |
| 1787792573 | 20.56° C | 99% | 1012.1 hPa | 0 mm | 0 m/s | 0 W/m² | - |
| 1787792003 | 20.56° C | 99% | 1012.3 hPa | 0 mm | 0 m/s | 0 W/m² | - |
| 1787791479 | 20.56° C | 99% | 1012.3 hPa | 0 mm | 0 m/s | 0 W/m² | - |
| 1787790973 | 21.11° C | 99% | 1012.3 hPa | 0 mm | 0 m/s | 0 W/m² | - |
| 1787790483 | 21.67° C | 99% | 1012.5 hPa | 0 mm | 0 m/s | 0 W/m² | - |
| 1787789943 | 21.67° C | 97% | 1012.1 hPa | 0 mm | 0 m/s | 0 W/m² | - |
| 1787789408 | 21.67° C | 98% | 1012.2 hPa | 0 mm | 0 m/s | 2 W/m² | - |
| 1787788926 | 21.67° C | 97% | 1012.1 hPa | 0 mm | 0 m/s | 5 W/m² | - |
| 1787788408 | 21.67° C | 98% | 1012 hPa | 0 mm | 0 m/s | 6 W/m² | - |
| 1787787866 | 22.22° C | 97% | 1012.1 hPa | 0 mm | 0 m/s | 9 W/m² | - |
| 1787787363 | 22.78° C | 96% | 1012 hPa | 0 mm | 0 m/s | 11 W/m² | - |
| 1787786803 | 22.78° C | 95% | 1011.9 hPa | 0 mm | 0 m/s | 15 W/m² | - |
| 1787786259 | 22.78° C | 94% | 1012.4 hPa | 0 mm | 0 m/s | 18 W/m² | - |
| 1787785698 | 22.78° C | 94% | 1012.3 hPa | 0 mm | 0 m/s | 23 W/m² | - |
| 1787785119 | 22.78° C | 93% | 1012.2 hPa | 0 mm | 0 m/s | 32 W/m² | - |
| 1787784573 | 22.78° C | 93% | 1012.3 hPa | 0 mm | 0 m/s | 42 W/m² | - |
* Rain latest hour (hover to see other rain measurements)
** Current wind speed in m/s (hover to see current wind gust speed)